| time (UTC) | temp F | wind direction | speed MPH | gust MPH | rain 1hr in | rain 24hr in | rain mn in | humidity % | barometer mb |
| 20260902004553 | 82 | 174 | 1.0 | 6.0 | 0.00 | 0.00 | 0.00 | 23 | 1005.7 |
| 20260902003057 | 82 | 171 | 3.0 | 7.0 | 0.00 | 0.00 | 0.00 | 24 | 1005.7 |
| 20260902001552 | 83 | 171 | 4.0 | 9.0 | 0.00 | 0.00 | 0.00 | 20 | 1005.7 |
| 20260902000112 | 82 | 161 | 5.0 | 9.0 | 0.00 | 0.00 | 0.00 | 20 | 1005.6 |
| 20260901234550 | 82 | 177 | 2.0 | 9.0 | 0.00 | 0.00 | 0.00 | 22 | 1005.8 |
| 20260901233049 | 83 | 176 | 5.0 | 9.0 | 0.00 | 0.00 | 0.00 | 21 | 1005.7 |
| 20260901231551 | 83 | 165 | 4.0 | 7.0 | 0.00 | 0.00 | 0.00 | 21 | 1005.7 |
| 20260901230050 | 84 | 179 | 4.0 | 8.0 | 0.00 | 0.00 | 0.00 | 17 | 1005.8 |
| 20260901224542 | 85 | 166 | 4.0 | 9.0 | 0.00 | 0.00 | 0.00 | 18 | 1005.9 |
| 20260901223042 | 84 | 202 | 4.0 | 13.0 | 0.00 | 0.00 | 0.00 | 18 | 1005.8 |
| 20260901221539 | 85 | 227 | 3.0 | 11.0 | 0.00 | 0.00 | 0.00 | 19 | 1005.9 |
| 20260901214536 | 84 | 196 | 3.0 | 9.0 | 0.00 | 0.00 | 0.00 | 22 | 1006.1 |
| 20260901213100 | 84 | 200 | 3.0 | 10.0 | 0.00 | 0.00 | 0.00 | 29 | 1006.2 |
| 20260901211533 | 85 | 204 | 4.0 | 9.0 | 0.00 | 0.00 | 0.00 | 31 | 1006.3 |
| 20260901210032 | 84 | 166 | 4.0 | 10.0 | 0.00 | 0.00 | 0.00 | 28 | 1006.4 |
| 20260901204537 | 83 | 171 | 4.0 | 10.0 | 0.00 | 0.00 | 0.00 | 31 | 1006.5 |
| 20260901203048 | 84 | 184 | 2.0 | 8.0 | 0.00 | 0.00 | 0.00 | 31 | 1006.6 |
| 20260901201525 | 84 | 171 | 3.0 | 12.0 | 0.00 | 0.00 | 0.00 | 32 | 1006.9 |
| 20260901200031 | 83 | 184 | 4.0 | 11.0 | 0.00 | 0.00 | 0.00 | 35 | 1007.0 |
| 20260901194520 | 83 | 174 | 5.0 | 10.0 | 0.00 | 0.00 | 0.00 | 33 | 1007.0 |
| 20260901193017 | 81 | 153 | 4.0 | 11.0 | 0.00 | 0.00 | 0.00 | 37 | 1007.2 |
| 20260901191515 | 80 | 168 | 5.0 | 9.0 | 0.00 | 0.00 | 0.00 | 47 | 1007.3 |
| 20260901190009 | 79 | 176 | 4.0 | 10.0 | 0.00 | 0.00 | 0.00 | 51 | 1007.3 |
| 20260901184507 | 78 | 254 | 3.0 | 6.0 | 0.00 | 0.00 | 0.00 | 53 | 1007.4 |
| 20260901183103 | 76 | 198 | 3.0 | 5.0 | 0.00 | 0.00 | 0.00 | 55 | 1007.6 |
| 20260901181557 | 75 | 185 | 2.0 | 6.0 | 0.00 | 0.00 | 0.00 | 57 | 1007.6 |
| 20260901180053 | 74 | 175 | 2.0 | 6.0 | 0.00 | 0.00 | 0.00 | 59 | 1007.6 |
| 20260901174548 | 73 | 278 | 3.0 | 7.0 | 0.00 | 0.00 | 0.00 | 62 | 1007.7 |
| 20260901173054 | 71 | 203 | 2.0 | 5.0 | 0.00 | 0.00 | 0.00 | 64 | 1007.6 |
| 20260901171541 | 70 | 219 | 1.0 | 5.0 | 0.00 | 0.00 | 0.00 | 66 | 1007.5 |
| 20260901170038 | 69 | 250 | 2.0 | 5.0 | 0.00 | 0.00 | 0.00 | 69 | 1007.5 |
| 20260901164536 | 68 | 201 | 2.0 | 4.0 | 0.00 | 0.00 | 0.00 | 68 | 1007.3 |
| 20260901163033 | 68 | 199 | 1.0 | 4.0 | 0.00 | 0.00 | 0.00 | 69 | 1007.4 |
| 20260901161535 | 67 | 189 | 2.0 | 4.0 | 0.00 | 0.00 | 0.00 | 70 | 1007.5 |
| 20260901160031 | 66 | 185 | 1.0 | 3.0 | 0.00 | 0.00 | 0.00 | 70 | 1007.5 |
| 20260901154527 | 66 | 195 | 2.0 | 5.0 | 0.00 | 0.00 | 0.00 | 71 | 1007.5 |
| 20260901153030 | 64 | 173 | 2.0 | 5.0 | 0.00 | 0.00 | 0.00 | 59 | 1007.4 |
| 20260901151518 | 62 | 104 | 1.0 | 2.0 | 0.00 | 0.00 | 0.00 | 63 | 1007.2 |
| 20260901150013 | 60 | 60 | 0.0 | 2.0 | 0.00 | 0.00 | 0.00 | 61 | 1007.1 |
| 20260901144511 | 58 | 60 | 1.0 | 2.0 | 0.00 | 0.00 | 0.00 | 65 | 1006.8 |
| 20260901143010 | 56 | 60 | 0.0 | 2.0 | 0.00 | 0.00 | 0.00 | 71 | 1006.6 |
| 20260901141507 | 55 | 60 | 2.0 | 3.0 | 0.00 | 0.00 | 0.00 | 69 | 1006.5 |
| 20260901140006 | 54 | 61 | 0.0 | 2.0 | 0.00 | 0.00 | 0.00 | 74 | 1006.3 |
| 20260901134505 | 54 | 61 | 0.0 | 2.0 | 0.00 | 0.00 | 0.00 | 79 | 1006.2 |
| 20260901133005 | 54 | 61 | 1.0 | 2.0 | 0.00 | 0.00 | 0.00 | 77 | 1006.1 |
| 20260901131504 | 54 | 61 | 1.0 | 2.0 | 0.00 | 0.00 | 0.00 | 80 | 1006.2 |
| 20260901130002 | 54 | 61 | 0.0 | 2.0 | 0.00 | 0.00 | 0.00 | 80 | 1006.2 |
| 20260901124502 | 54 | 61 | 0.0 | 2.0 | 0.00 | 0.00 | 0.00 | 80 | 1006.1 |
| 20260901123100 | 55 | 61 | 0.0 | 3.0 | 0.00 | 0.00 | 0.00 | 79 | 1006.1 |
| 20260901121559 | 55 | 61 | 1.0 | 2.0 | 0.00 | 0.00 | 0.00 | 81 | 1006.0 |
| 20260901120058 | 55 | 61 | 0.0 | 1.0 | 0.00 | 0.00 | 0.00 | 80 | 1006.0 |
| 20260901114557 | 55 | 61 | 0.0 | 2.0 | 0.00 | 0.00 | 0.00 | 80 | 1005.8 |
| 20260901113057 | 56 | 61 | 1.0 | 3.0 | 0.00 | 0.00 | 0.00 | 80 | 1005.9 |
| 20260901111554 | 55 | 63 | 1.0 | 3.0 | 0.00 | 0.00 | 0.00 | 80 | 1005.9 |
| 20260901110058 | 56 | 63 | 0.0 | 3.0 | 0.00 | 0.00 | 0.00 | 80 | 1005.9 |
| 20260901104555 | 56 | 63 | 1.0 | 3.0 | 0.00 | 0.00 | 0.00 | 78 | 1005.9 |
| 20260901103051 | 56 | 63 | 1.0 | 3.0 | 0.00 | 0.00 | 0.00 | 78 | 1006.0 |
| 20260901101550 | 56 | 63 | 1.0 | 2.0 | 0.00 | 0.00 | 0.00 | 76 | 1006.2 |
| 20260901100048 | 56 | 63 | 1.0 | 3.0 | 0.00 | 0.00 | 0.00 | 75 | 1006.3 |
| 20260901094549 | 56 | 63 | 0.0 | 3.0 | 0.00 | 0.00 | 0.00 | 73 | 1006.0 |
| 20260901093043 | 56 | 63 | 2.0 | 3.0 | 0.00 | 0.00 | 0.00 | 72 | 1005.9 |
| 20260901091542 | 56 | 66 | 1.0 | 2.0 | 0.00 | 0.00 | 0.00 | 72 | 1006.0 |
| 20260901090039 | 57 | 66 | 1.0 | 3.0 | 0.00 | 0.00 | 0.00 | 71 | 1006.0 |
| 20260901084540 | 57 | 66 | 1.0 | 2.0 | 0.00 | 0.00 | 0.00 | 71 | 1006.1 |
| 20260901083036 | 58 | 66 | 0.0 | 2.0 | 0.00 | 0.00 | 0.00 | 69 | 1006.0 |
| 20260901081534 | 58 | 66 | 1.0 | 2.0 | 0.00 | 0.00 | 0.00 | 67 | 1006.1 |
| 20260901080032 | 59 | 66 | 1.0 | 2.0 | 0.00 | 0.00 | 0.00 | 64 | 1006.3 |
| 20260901074532 | 58 | 66 | 1.0 | 2.0 | 0.00 | 0.00 | 0.00 | 63 | 1006.3 |
| 20260901073033 | 59 | 66 | 0.0 | 2.0 | 0.00 | 0.00 | 0.00 | 61 | 1006.3 |
| 20260901071526 | 60 | 66 | 0.0 | 2.0 | 0.00 | 0.00 | 0.00 | 61 | 1006.1 |
| 20260901070024 | 60 | 66 | 0.0 | 3.0 | 0.00 | 0.00 | 0.00 | 60 | 1006.0 |
| 20260901064525 | 60 | 66 | 0.0 | 2.0 | 0.00 | 0.00 | 0.00 | 59 | 1005.8 |
| 20260901063017 | 60 | 66 | 1.0 | 3.0 | 0.00 | 0.00 | 0.00 | 58 | 1005.6 |
| 20260901061516 | 61 | 66 | 1.0 | 2.0 | 0.00 | 0.00 | 0.00 | 56 | 1005.6 |
| 20260901060015 | 62 | 66 | 1.0 | 2.0 | 0.00 | 0.00 | 0.00 | 52 | 1005.6 |
| 20260901054515 | 62 | 66 | 2.0 | 3.0 | 0.00 | 0.00 | 0.00 | 51 | 1005.6 |
| 20260901053015 | 62 | 67 | 1.0 | 2.0 | 0.00 | 0.00 | 0.00 | 49 | 1005.6 |
| 20260901051513 | 63 | 67 | 1.0 | 3.0 | 0.00 | 0.00 | 0.00 | 49 | 1005.5 |
| 20260901050013 | 63 | 67 | 1.0 | 4.0 | 0.00 | 0.00 | 0.00 | 48 | 1005.5 |
| 20260901044514 | 63 | 67 | 1.0 | 2.0 | 0.00 | 0.00 | 0.00 | 48 | 1005.2 |
| 20260901043013 | 64 | 67 | 1.0 | 3.0 | 0.00 | 0.00 | 0.00 | 49 | 1005.0 |
| 20260901041511 | 65 | 68 | 1.0 | 3.0 | 0.00 | 0.00 | 0.00 | 49 | 1005.0 |
| 20260901040010 | 66 | 70 | 2.0 | 3.0 | 0.00 | 0.00 | 0.00 | 50 | 1004.7 |
| 20260901034521 | 67 | 178 | 1.0 | 2.0 | 0.00 | 0.00 | 0.00 | 50 | 1004.6 |
| 20260901033009 | 68 | 178 | 1.0 | 2.0 | 0.00 | 0.00 | 0.00 | 49 | 1004.4 |
| 20260901031507 | 69 | 178 | 1.0 | 3.0 | 0.00 | 0.00 | 0.00 | 47 | 1004.3 |
| 20260901030007 | 72 | 185 | 0.0 | 2.0 | 0.00 | 0.00 | 0.00 | 44 | 1004.2 |
| 20260901024507 | 74 | 185 | 0.0 | 3.0 | 0.00 | 0.00 | 0.00 | 42 | 1004.1 |
| 20260901023011 | 75 | 186 | 0.0 | 1.0 | 0.00 | 0.00 | 0.00 | 40 | 1004.2 |
| 20260901021510 | 76 | 186 | 0.0 | 2.0 | 0.00 | 0.00 | 0.00 | 38 | 1004.1 |
| 20260901020005 | 77 | 183 | 1.0 | 4.0 | 0.00 | 0.00 | 0.00 | 36 | 1004.0 |
| 20260901014505 | 79 | 175 | 3.0 | 6.0 | 0.00 | 0.00 | 0.00 | 35 | 1004.0 |
| 20260901013004 | 80 | 188 | 2.0 | 6.0 | 0.00 | 0.00 | 0.00 | 29 | 1003.9 |
| 20260901011506 | 81 | 176 | 3.0 | 6.0 | 0.00 | 0.00 | 0.00 | 30 | 1003.9 |
| 20260901010003 | 82 | 173 | 2.0 | 9.0 | 0.00 | 0.00 | 0.00 | 29 | 1004.0 |